Starlink 30892

operational
NORAD ID: 58366 Int'l Des: 2023-177 Owner: SPXS Country: US Constellation: starlink
LEOCIRCULAR

About Starlink 30892

Description loading...

Live Position

Loading 3D Globe...

Upcoming Passes

Altitude History

Altitude vs Time

uPlot chart will show altitude changes over time

Two-Line Element Set

1 58366U 23177R 25303.52124013 .00000168 00000-0 27521-4 0 9995
2 58366 43.0025 339.0102 0001192 263.2992 96.7715 15.02537676108644
Epoch: Oct 30, 2025 • Age: 29 hours

Current Status

Altitude 560.4 km
Velocity 7.59 km/s
Sub-Earth Point 30.81°N, 70.05°E
Launch Date Nov 18, 2023
Age 1.9 years
Type internet

Technical Details

Classification Payload
Mass 730.00 kg
Dry Mass 700.00 kg
Total Mass 730.00 kg
Length 0.30 m
Diameter 4.10 m
Span 29.00 m
Shape Box + pan
Manufacturer SPXS
Bus Type Starlink V2M
Phase Status In Orbit
Owner/State SPXS/US

Large Constellations

Loading constellations...